Skip Navigation Links
NOAA logo - Click to go to the NOAA homepage
NOAA's National Weather Service
Alaska Aviation Weather Unit
  NWS logo - Click to go to the NWS homepage
Left Navbar Graphic     09 AKDT = 17 GMT

   
NOAA is celebrating 200 years of science, service, and stewardship. Visit the NOAA 200th celebration Web site to learn more.
USA.gov is the U.S. Government's official Web portal to all Federal, state and local government Web resources and services.
Facebook
NWS on Facebook

Important Change Regarding the AAWU Web Presence

 

Over the last several months, the AAWU has been working to navigate its webpages to a nationally supported server. Security, as well as other needs, have necessitated the change.  In the process, we have made an effort to enhance the functionality of our website, as well as some of our products. As of June 20, 2017, aawu.arh.noaa.gov will be discontinued. The new AAWU web address is weather.gov/aawu. It is now live and will run in-parallel with the old site until it is discontinued. Please send any feedback or questions regarding the new webpages to nws.ar.aawu.webauthors@noaa.gov.  Thank you for your patience during this time of transition.
AAWU Home :: Display TAF Add Bookmark
TAF PABR 291124Z 2912/3012 08015KT P6SM SCT015 BKN100
     FM291500 08015KT 6SM BR SCT015 BKN100
     FM292100 07018KT 6SM BR SCT007 OVC015
     FM300000 07020KT 4SM BR BKN007 OVC015
     FM300600 07015KT 1 1/2SM BR OVC007=

PABR 291153Z AUTO 09017KT 10SM CLR M01/M02 A3003= PABR 291253Z AUTO 09016KT 10SM CLR M01/M02 A3002= PABR 291353Z AUTO 09015KT 10SM FEW075 M01/M02 A3002= PABR 291453Z 08018KT 10SM FEW075 SCT200 00/M02 A3001= PABR 291553Z 08020KT 10SM SCT200 01/M02 A3001= METAR PABR 291653Z 08019KT 10SM CLR 01/M02 A3001 RMK AO2 SLP162 T00111022=
 Alaska TAF Map

NOAA's National Weather Service
Alaska Aviation Weather Unit
6930 Sand Lake Road
Anchorage, AK 99502-1845
Disclaimer
Credits
Glossary
Privacy Policy
About Us
Career Opportunities
Contact AAWU Internet Services Site last modified: April, 17th 2012